Temp
60 59 60 58 58 59 58 58 63 63 62 62 61 61 61 62 61 55 50 60 61 67 65 61 61 63 63 61 62 59 46 42 44 51 52 56 56 60 61 61 59 57 57 57 62
59 58 59 58 58 58 58 58 62 62 62 61 61 61 62 61 53 49 60 66 67 67 60 58 55 61 55 56 57 53 46 45 51 55 54 56 56 55 58 56 54 57 58 61 62
58 58 58 58 57 58 57 57 61 62 62 62 62 61 62 61 49 52 65 66 67 66 62 61 60 61 51 55 54 52 47 51 51 57 57 56 53 50 51 49 47 46 55 57 58
58 57 57 57 56 57 56 57 62 62 61 62 61 61 61 53 42 55 65 66 67 63 61 58 57 54 50 48 54 47 53 56 56 55 56 52 53 45 46 46 50 51 53 53 53
57 56 56 56 56 56 56 56 59 61 61 61 62 61 55 44 47 60 63 65 61 60 58 57 55 54 49 52 51 50 51 55 56 56 55 53 47 46 45 49 51 52 51 49 49
57 56 56 56 56 56 55 55 57 60 61 62 62 61 48 40 56 58 58 58 57 57 56 57 56 59 54 53 51 51 52 52 55 56 56 52 46 48 47 50 49 49 48 48 48
57 56 55 55 55 56 55 54 56 58 61 62 62 57 47 46 54 57 58 55 57 58 55 58 58 57 56 51 55 53 47 51 53 54 55 54 47 40 46 49 46 46 47 47 47
56 56 55 55 55 56 55 54 55 58 59 62 62 52 43 55 53 56 56 55 57 59 59 59 60 56 55 55 52 47 47 42 51 53 55 55 43 44 46 46 44 45 46 46 47
56 55 55 55 55 55 56 53 54 58 60 61 53 48 41 57 50 54 54 54 55 57 57 63 58 52 51 44 42 44 36 40 44 53 53 49 42 43 45 45 42 43 45 46 46
55 55 55 54 55 55 56 54 55 56 57 58 57 44 46 44 49 53 53 55 52 53 53 52 47 43 43 40 31 35 37 40 40 48 49 43 39 42 43 43 41 44 45 45 44
55 55 54 54 55 55 51 49 47 46 48 44 46 44 46 49 52 50 53 53 51 49 41 44 40 35 40 45 45 43 42 40 44 50 47 43 39 40 42 41 42 44 44 44 43
53 54 54 54 55 55 48 45 45 46 42 50 49 47 50 50 44 47 53 46 44 39 42 40 35 43 46 46 45 42 39 39 45 48 46 39 38 39 40 39 42 43 43 44 44
53 53 54 54 54 46 44 45 49 49 42 45 48 47 48 50 42 45 51 45 41 39 39 37 40 46 45 42 42 40 38 38 41 44 43 40 38 36 38 41 42 43 43 44 43
53 53 53 54 46 42 43 47 49 48 34 37 43 46 48 49 41 50 51 47 41 38 40 40 42 43 41 41 43 37 45 44 43 41 32 41 31 33 35 36 40 40 41 41 41
52 52 53 51 38 41 43 47 48 46 21 40 42 51 48 43 43 44 50 46 39 39 40 37 39 39 38 42 45 41 45 44 43 41 37 35 30 36 35 33 35 39 40 40 41
52 52 51 43 39 42 46 47 46 29 21 35 41 40 39 40 40 43 44 47 45 41 39 38 42 43 43 44 46 46 44 42 41 38 30 34 33 33 31 36 38 38 39 39 39
52 51 46 43 35 43 46 43 28 22 34 32 35 40 36 34 36 38 37 36 35 31 33 35 36 39 42 40 42 41 39 26 24 27 27 34 33 40 37 38 39 36 36 37 38
50 48 44 43 39 42 43 34 23 23 31 40 38 40 35 36 33 35 34 32 36 35 30 30 27 38 42 41 38 37 38 29 22 23 28 33 29 38 35 36 40 39 36 35 34
48 36 36 38 40 44 36 25 22 27 35 37 36 33 33 34 33 34 33 33 36 36 33 30 31 37 40 41 44 37 34 40 32 24 26 31 34 32 32 31 32 32 32 32 32
33 32 33 39 39 40 31 27 28 39 40 40 31 35 29 32 30 31 33 36 36 40 39 37 31 34 39 41 40 39 43 32 32 24 22 29 31 36 28 29 30 30 31 31 31
32 29 35 37 38 33 25 24 30 37 40 38 34 33 33 33 32 31 32 35 40 38 39 38 35 30 36 34 35 37 35 35 35 32 27 25 31 35 34 33 30 30 31 30 30
29 16 35 41 23 25 19 23 35 34 38 39 40 37 34 35 33 31 30 34 40 41 36 38 34 26 30 35 37 36 37 36 31 27 28 30 31 32 32 34 33 31 31 31 31
20 20 33 35 13 11 16 25 31 32 33 35 36 40 39 36 32 34 33 39 40 41 39 40 25 19 26 32 31 32 35 38 35 33 28 27 31 31 31 31 33 30 29 29 28
20 12 20 25 24 20 22 19 21 34 33 34 34 37 38 34 38 33 35 36 38 40 44 44 33 33 31 32 34 32 34 37 40 32 33 34 33 27 27 27 28 29 28 27 27
18 12 17 10 16 26 26 19 21 20 32 33 33 34 35 31 30 32 36 35 37 40 39 39 31 28 31 32 32 34 37 36 35 39 34 39 33 36 31 29 29 29 28 27 26
16 15 23 14 26 24 27 23 21 26 26 27 30 33 32 32 29 30 34 35 37 37 36 37 26 28 23 32 30 27 34 37 38 40 38 32 32 33 33 32 28 28 28 27 27
25 26 22 22 24 22 15 21 22 27 30 30 32 30 31 33 32 32 36 39 39 37 36 34 30 27 25 30 31 26 32 33 36 40 39 33 43 32 28 31 30 29 29 29 29
MSLP
1015.65 1015.91 1015.85 1015.76 1015.71 1015.39 1015.30 1014.94 1014.75 1015.22 1015.65 1016.01 1016.38 1016.66 1016.82 1016.84 1016.99 1017.32 1017.21 1016.59 1016.45 1016.41 1016.58 1016.86 1017.03 1017.10 1017.27 1017.66 1017.87 1018.37 1019.22 1020.13 1020.33 1019.34 1018.78 1018.15 1017.85 1017.53 1017.58 1017.87 1018.66 1019.30 1019.42 1019.81 1019.64
1015.80 1016.14 1016.22 1016.06 1015.99 1015.90 1015.42 1015.02 1014.82 1015.29 1015.71 1016.18 1016.41 1016.61 1016.73 1016.85 1017.30 1017.24 1016.65 1016.37 1016.37 1016.44 1016.85 1017.10 1017.38 1017.34 1018.08 1018.32 1018.39 1018.51 1019.31 1020.17 1020.38 1019.60 1019.19 1018.78 1018.57 1018.79 1018.74 1019.33 1020.22 1020.43 1020.43 1020.27 1020.29
1015.97 1016.09 1016.13 1015.99 1016.10 1015.99 1015.78 1015.09 1014.97 1015.33 1015.80 1016.15 1016.32 1016.62 1016.70 1016.79 1017.16 1016.46 1016.10 1016.32 1016.43 1016.50 1016.77 1017.08 1017.37 1017.50 1018.43 1018.76 1018.87 1019.05 1019.27 1019.82 1020.16 1019.64 1019.34 1019.31 1019.66 1020.25 1020.49 1021.56 1022.77 1022.77 1022.03 1021.47 1021.16
1016.21 1016.32 1016.44 1016.24 1016.29 1016.18 1016.21 1015.68 1015.06 1015.34 1015.87 1016.07 1016.34 1016.64 1016.77 1017.15 1017.25 1016.26 1016.08 1016.18 1016.41 1016.54 1016.80 1017.27 1017.64 1017.82 1018.58 1019.07 1019.14 1019.63 1019.38 1019.64 1019.74 1019.95 1019.62 1019.83 1020.43 1022.04 1022.53 1023.77 1023.73 1023.30 1023.14 1022.77 1022.38
1016.45 1016.62 1016.59 1016.39 1016.29 1015.95 1016.15 1016.11 1015.55 1015.53 1015.83 1016.10 1016.38 1016.74 1016.98 1017.50 1016.91 1016.13 1015.84 1016.12 1016.62 1016.85 1017.06 1017.33 1017.65 1017.90 1018.50 1019.06 1019.38 1019.60 1019.92 1019.89 1019.74 1019.80 1020.18 1020.41 1021.60 1022.71 1023.84 1024.08 1023.99 1023.84 1023.70 1023.70 1023.67
1016.63 1016.77 1016.80 1016.55 1016.47 1016.62 1016.65 1016.61 1016.26 1015.63 1015.88 1016.15 1016.48 1016.77 1017.11 1017.23 1016.62 1016.39 1016.18 1016.63 1016.86 1017.08 1017.36 1017.39 1017.44 1017.54 1018.40 1018.90 1019.56 1019.91 1020.24 1020.01 1019.69 1019.65 1020.16 1021.12 1022.35 1022.92 1024.46 1024.70 1024.42 1024.16 1024.35 1024.73 1024.53
1016.80 1016.99 1017.10 1017.18 1016.81 1016.60 1016.40 1016.69 1016.52 1016.14 1016.04 1016.22 1016.58 1016.81 1017.16 1016.84 1016.67 1016.52 1016.41 1016.85 1017.08 1017.08 1017.45 1017.40 1017.34 1017.59 1018.33 1019.25 1019.73 1019.99 1020.15 1019.98 1019.85 1019.86 1020.28 1020.92 1022.59 1024.27 1025.06 1025.07 1024.94 1025.07 1025.03 1025.22 1025.20
1017.08 1017.26 1017.33 1017.22 1017.19 1016.89 1016.67 1016.84 1016.80 1016.46 1016.28 1016.29 1016.70 1016.99 1017.12 1016.72 1016.64 1016.60 1016.68 1017.19 1017.25 1017.10 1017.27 1017.39 1017.43 1017.88 1018.57 1019.30 1019.99 1020.45 1020.86 1020.82 1020.13 1020.37 1020.22 1020.70 1023.04 1024.36 1024.96 1025.40 1025.56 1025.65 1025.60 1025.66 1025.71
1017.39 1017.44 1017.52 1017.54 1017.55 1017.50 1017.22 1017.11 1016.78 1016.55 1016.31 1016.41 1017.26 1017.30 1017.29 1016.77 1016.88 1016.99 1016.88 1017.27 1017.51 1017.37 1017.35 1017.39 1017.50 1018.40 1019.19 1019.95 1020.92 1021.14 1021.24 1020.98 1020.71 1020.37 1020.76 1021.23 1023.20 1024.92 1025.15 1025.81 1025.99 1025.98 1026.08 1026.16 1026.38
1017.54 1017.57 1017.56 1017.63 1017.44 1017.37 1017.13 1017.01 1017.02 1016.66 1016.82 1016.89 1017.06 1017.66 1017.44 1017.14 1017.06 1017.17 1017.22 1017.33 1017.73 1017.84 1017.96 1018.15 1018.67 1019.27 1020.12 1020.37 1020.97 1021.20 1021.40 1021.18 1020.77 1020.92 1021.04 1021.85 1023.59 1025.08 1025.46 1025.95 1026.29 1026.27 1026.28 1026.44 1026.90
1017.88 1017.73 1017.82 1017.80 1017.75 1017.38 1017.63 1017.23 1017.55 1017.71 1017.50 1017.34 1017.23 1017.38 1017.11 1017.21 1017.20 1017.43 1017.49 1017.59 1017.95 1018.33 1018.83 1019.06 1019.58 1019.70 1020.15 1020.11 1020.17 1020.56 1020.89 1020.85 1021.07 1020.70 1021.35 1022.54 1023.90 1024.95 1025.54 1026.07 1026.50 1026.38 1026.47 1026.66 1027.06
1018.24 1018.11 1018.05 1017.97 1018.19 1017.85 1017.81 1018.02 1018.24 1018.56 1018.11 1017.67 1017.48 1017.41 1017.12 1017.17 1017.51 1017.55 1017.61 1018.05 1018.46 1019.16 1019.36 1019.92 1019.85 1019.84 1019.83 1020.06 1020.17 1020.69 1020.89 1020.99 1021.34 1020.88 1021.64 1022.89 1023.85 1024.63 1025.24 1026.20 1026.47 1026.55 1026.68 1026.77 1027.08
1018.66 1018.35 1018.41 1018.33 1018.28 1018.49 1018.56 1018.77 1018.53 1018.32 1017.98 1017.65 1017.23 1017.06 1017.02 1017.29 1017.48 1017.58 1017.72 1018.22 1018.73 1019.44 1019.53 1019.62 1019.59 1019.64 1019.83 1019.95 1020.13 1020.49 1020.54 1020.79 1021.05 1021.23 1022.05 1022.83 1023.82 1024.73 1025.52 1025.93 1026.30 1026.83 1026.88 1027.05 1027.20
1018.66 1018.53 1018.46 1018.43 1018.92 1019.22 1019.06 1019.06 1018.65 1018.57 1018.43 1017.77 1017.29 1016.70 1016.92 1017.13 1017.61 1017.52 1017.43 1017.82 1018.78 1019.29 1019.75 1019.68 1019.48 1019.57 1019.78 1019.85 1020.03 1020.26 1019.86 1020.29 1020.82 1021.45 1022.29 1022.90 1023.36 1023.85 1024.58 1025.51 1025.92 1026.67 1026.97 1027.24 1027.33
1019.06 1018.92 1018.82 1018.80 1019.47 1019.60 1020.17 1019.34 1018.85 1018.57 1018.37 1017.53 1017.01 1016.50 1016.57 1017.35 1017.44 1017.65 1017.36 1017.70 1018.43 1018.92 1019.56 1019.45 1019.30 1019.57 1019.63 1019.29 1019.63 1019.68 1019.59 1020.15 1020.73 1021.45 1022.39 1022.90 1023.79 1023.04 1024.19 1024.92 1025.34 1026.04 1026.82 1027.17 1027.62
1019.18 1019.17 1019.20 1019.68 1020.04 1020.53 1019.79 1019.14 1019.22 1019.39 1018.35 1017.45 1016.82 1016.56 1017.08 1017.53 1017.73 1017.86 1017.62 1017.73 1018.26 1018.94 1019.27 1019.31 1019.07 1018.94 1018.73 1018.88 1019.12 1019.55 1019.94 1020.62 1021.29 1022.42 1022.52 1022.44 1023.37 1022.49 1023.37 1022.81 1024.01 1025.53 1026.77 1026.87 1028.05
1019.34 1019.38 1019.60 1019.78 1020.59 1020.29 1019.70 1019.44 1019.72 1018.97 1018.45 1017.96 1017.13 1016.84 1017.32 1017.88 1018.18 1018.03 1018.03 1018.18 1018.13 1018.88 1019.38 1019.56 1019.25 1018.81 1018.66 1019.03 1019.22 1019.48 1020.08 1021.52 1022.61 1022.90 1022.10 1021.69 1022.79 1021.53 1021.70 1022.30 1022.98 1024.57 1026.21 1027.07 1028.04
1019.41 1019.55 1020.12 1020.54 1020.69 1020.35 1020.47 1020.33 1019.66 1018.80 1018.13 1017.63 1017.22 1017.34 1017.79 1017.93 1018.43 1018.50 1018.63 1018.63 1018.21 1018.04 1019.12 1019.29 1019.50 1018.80 1018.42 1018.52 1018.85 1019.34 1019.36 1020.36 1021.50 1022.30 1022.07 1022.13 1021.69 1020.95 1022.12 1022.91 1023.38 1024.71 1026.15 1027.48 1028.32
1019.68 1020.25 1020.73 1020.69 1020.50 1020.29 1020.49 1020.32 1019.14 1018.32 1017.61 1017.30 1017.43 1017.65 1018.07 1018.15 1018.38 1018.71 1018.63 1018.44 1017.87 1017.63 1017.80 1018.51 1018.69 1018.56 1018.29 1018.36 1018.48 1019.26 1019.39 1019.67 1020.88 1022.02 1022.12 1021.16 1020.91 1021.56 1022.70 1023.58 1024.59 1025.60 1026.59 1027.46 1028.39
1020.37 1020.90 1021.07 1020.83 1020.66 1020.57 1021.23 1020.70 1019.43 1018.52 1017.51 1017.09 1016.90 1017.14 1017.38 1018.03 1018.51 1018.65 1018.93 1017.64 1017.48 1017.17 1017.05 1017.36 1018.43 1018.59 1018.58 1018.68 1018.73 1018.37 1018.85 1019.95 1020.90 1021.54 1021.96 1020.74 1020.77 1020.90 1022.12 1023.25 1024.75 1025.77 1026.54 1027.58 1028.57
1020.77 1021.17 1021.00 1020.56 1020.66 1021.30 1021.68 1021.09 1020.20 1019.01 1018.09 1017.27 1016.88 1016.84 1017.10 1017.49 1018.13 1018.37 1018.04 1017.42 1017.12 1017.19 1017.08 1017.22 1017.49 1019.22 1019.05 1018.62 1018.38 1018.81 1018.82 1019.36 1019.87 1020.50 1020.52 1020.51 1019.78 1019.52 1020.84 1022.26 1024.22 1025.70 1026.67 1027.58 1028.74
1021.35 1021.85 1020.94 1020.64 1021.49 1022.18 1022.49 1021.70 1020.67 1019.64 1018.56 1017.57 1016.90 1016.71 1016.53 1016.87 1017.32 1017.87 1017.63 1017.23 1016.59 1016.59 1017.12 1017.02 1017.72 1019.01 1018.87 1018.51 1018.20 1018.07 1018.06 1018.58 1019.28 1019.95 1019.94 1020.13 1019.46 1019.89 1021.14 1022.13 1023.54 1025.15 1026.63 1027.86 1028.69
1022.23 1022.29 1021.36 1020.97 1022.19 1022.91 1022.62 1021.99 1020.92 1019.91 1019.25 1018.40 1017.39 1016.69 1016.62 1016.64 1017.14 1017.02 1016.87 1016.55 1016.67 1016.73 1016.29 1016.78 1017.31 1018.90 1019.23 1019.10 1018.54 1018.03 1017.99 1017.89 1018.41 1018.61 1018.69 1019.57 1019.18 1020.31 1021.15 1022.24 1023.67 1024.96 1026.36 1027.49 1028.57
1023.13 1023.71 1022.86 1022.62 1023.04 1023.14 1022.90 1022.30 1021.41 1020.39 1019.58 1019.21 1018.36 1017.12 1016.82 1016.77 1016.49 1016.45 1016.68 1016.70 1016.59 1016.43 1016.33 1016.42 1017.07 1017.25 1017.13 1017.07 1017.03 1017.71 1017.34 1017.36 1017.51 1017.47 1017.61 1017.08 1018.40 1019.97 1021.41 1022.58 1023.86 1025.02 1026.11 1027.23 1028.30
1023.41 1024.07 1023.85 1023.72 1023.27 1023.19 1023.02 1022.27 1021.52 1020.82 1020.03 1019.30 1018.53 1017.92 1017.14 1017.20 1017.04 1016.73 1016.49 1016.83 1016.83 1016.46 1016.54 1016.65 1016.72 1017.33 1017.22 1017.17 1016.99 1016.63 1016.39 1016.61 1016.34 1015.65 1016.34 1016.25 1017.64 1018.01 1019.73 1021.15 1022.77 1024.43 1025.83 1026.82 1027.71
1022.86 1023.99 1024.19 1023.77 1023.13 1022.94 1022.86 1022.20 1021.06 1020.22 1020.15 1019.46 1018.85 1018.21 1018.44 1017.61 1017.45 1017.05 1016.55 1016.23 1015.77 1016.61 1016.59 1016.55 1016.63 1016.97 1017.63 1017.51 1017.38 1017.07 1016.20 1015.60 1014.97 1015.18 1015.30 1015.97 1016.37 1017.35 1018.58 1020.78 1022.72 1023.60 1024.78 1025.71 1026.55
1022.24 1022.39 1022.81 1023.46 1023.17 1022.71 1022.02 1020.88 1020.67 1020.45 1019.42 1018.89 1018.84 1018.74 1018.30 1017.51 1017.49 1017.58 1017.09 1015.15 1014.77 1014.81 1015.39 1016.11 1016.49 1017.04 1017.27 1017.34 1017.45 1016.92 1014.12 1014.68 1014.54 1014.12 1014.38 1014.94 1014.20 1017.40 1019.14 1019.95 1020.85 1022.17 1023.03 1023.87 1025.19
Wind_Speed
1 5 9 9 13 16 16 14 13 10 8 7 8 6 5 4 6 3 3 5 2 8 6 5 5 4 4 3 3 3 4 3 1 5 6 5 3 5 3 5 5 6 4 2 7
5 5 7 7 9 14 18 18 11 11 8 8 10 8 7 5 3 1 6 3 1 10 6 6 4 5 4 2 3 3 3 7 3 3 4 5 4 5 6 6 9 6 8 7 5
4 5 9 10 7 12 18 22 13 10 8 8 10 9 8 4 1 3 2 7 3 5 6 3 5 4 5 2 3 2 4 8 1 4 4 4 5 6 3 7 5 7 6 9 9
6 7 8 9 6 9 14 20 12 10 9 7 10 8 9 4 7 1 9 11 5 4 4 8 3 3 4 2 2 5 4 3 6 5 7 4 4 7 9 2 5 6 5 6 11
5 6 7 10 9 11 14 17 11 6 8 8 10 12 6 3 3 5 8 12 5 4 5 5 4 4 5 5 2 4 2 3 5 4 5 11 9 7 9 7 7 9 13 13 11
5 5 7 9 9 9 10 11 16 5 7 10 13 8 4 4 3 6 6 7 5 5 5 4 4 5 5 4 5 3 2 2 4 5 4 5 3 6 6 6 10 12 14 12 13
4 4 5 6 6 9 12 9 14 10 2 13 14 4 4 6 2 4 4 3 4 5 5 2 2 2 6 6 4 4 1 3 3 6 2 7 5 5 5 4 11 11 11 13 14
5 5 5 6 5 8 10 8 10 10 1 14 13 2 3 3 1 3 2 4 2 3 5 2 2 6 4 5 4 4 3 7 1 4 2 3 1 4 6 5 9 10 10 12 15
5 4 4 4 3 5 7 5 10 12 1 14 3 3 2 1 2 2 2 6 5 2 3 2 3 4 4 6 4 3 3 5 3 3 4 1 3 1 5 4 7 8 9 10 12
8 4 5 6 4 7 8 4 6 4 6 3 3 2 1 3 2 4 3 5 4 3 5 4 5 4 3 4 5 5 3 4 5 8 1 4 3 1 4 6 5 7 8 10 11
8 6 5 7 4 8 4 2 1 4 4 2 3 1 2 1 1 3 3 4 4 5 5 2 3 5 8 7 4 6 2 7 8 4 4 5 6 6 4 5 4 6 7 9 9
12 7 5 5 5 6 2 2 4 3 3 4 2 2 2 2 4 2 4 5 4 5 5 4 5 7 6 7 6 4 5 3 0 4 3 6 4 3 4 3 2 4 5 7 7
12 8 5 4 7 5 3 3 5 6 3 1 3 4 3 4 3 7 6 4 5 6 6 8 4 7 5 4 4 2 7 7 5 3 3 4 4 6 4 6 6 3 5 6 7
13 9 6 6 4 4 3 7 5 5 3 4 4 5 4 4 1 3 5 6 3 8 6 4 2 9 5 6 6 4 6 7 5 3 2 2 5 5 7 8 9 8 6 6 8
9 10 10 9 1 4 6 8 5 2 2 4 5 3 5 6 6 4 3 4 9 7 7 7 8 6 4 7 7 6 5 8 5 9 4 2 1 3 6 8 13 11 9 7 6
8 9 7 5 3 1 6 6 2 4 7 6 1 7 7 3 1 5 4 3 5 5 3 4 2 6 10 4 8 8 6 6 5 4 8 7 6 5 8 9 10 13 11 11 9
7 8 4 2 0 6 3 4 4 4 1 3 4 7 6 6 4 4 7 6 8 8 6 2 2 2 3 6 2 3 7 2 2 3 5 3 6 12 4 4 11 18 13 10 10
5 6 4 3 2 3 2 1 4 2 5 3 3 11 6 6 2 4 7 7 6 4 6 8 4 7 5 7 9 7 7 6 7 4 3 2 7 6 1 2 5 13 13 10 9
4 3 3 3 4 2 2 1 7 5 6 7 7 7 5 4 5 5 9 7 8 9 8 7 7 2 3 3 7 5 4 4 6 2 2 5 5 3 3 4 8 12 11 10 9
3 2 1 6 4 3 2 5 2 3 3 4 4 6 6 10 4 6 11 6 5 9 2 6 5 2 3 3 1 7 8 3 2 2 5 5 4 7 9 12 10 12 12 10 9
4 3 3 5 2 3 2 2 3 7 5 2 3 7 5 8 7 6 9 5 7 6 3 5 4 1 4 7 9 3 4 3 5 5 5 2 6 2 4 14 15 11 10 12 11
3 3 3 2 5 3 3 5 2 3 4 3 2 3 7 10 8 8 9 6 5 8 7 5 6 4 8 4 3 3 9 7 5 5 4 1 8 1 5 8 16 14 12 10 10
3 2 3 4 3 2 3 3 3 0 3 5 3 5 4 6 4 6 6 5 7 8 11 7 2 4 6 6 2 5 5 7 3 3 8 7 7 2 4 9 12 15 13 12 11
4 2 5 4 4 3 4 4 3 2 2 3 5 4 3 5 5 10 12 6 7 7 2 4 4 9 12 3 8 8 7 10 14 9 6 12 6 5 6 10 11 13 14 13 13
3 4 3 3 3 4 2 3 2 3 4 4 4 6 3 5 3 6 5 3 1 4 3 6 11 4 2 2 0 3 15 15 20 21 15 13 10 5 16 18 18 14 15 16 15
5 4 1 2 6 6 6 6 9 6 8 5 8 5 6 4 4 7 8 6 9 6 6 3 4 4 2 4 3 3 8 17 24 19 18 3 9 1 5 13 15 18 19 18 18
2 0 5 3 4 5 6 7 7 3 7 3 6 5 12 12 3 7 14 7 6 12 15 8 6 4 6 6 3 8 21 15 12 18 14 18 20 7 7 15 20 21 22 22 20
Wind_Direction
17 330 329 356 353 359 353 338 173 176 191 202 213 207 188 247 86 46 216 222 160 150 100 111 44 65 47 72 90 140 87 106 321 345 310 328 16 2 321 77 49 14 57 20 116
52 9 344 351 356 354 352 341 182 179 172 202 198 193 195 137 78 296 243 219 236 141 108 134 125 100 63 55 20 86 109 154 249 324 309 309 47 325 51 27 17 38 30 74 88
66 23 0 6 16 10 349 344 173 166 177 183 186 178 167 122 129 243 230 201 185 147 139 119 130 82 73 359 352 34 135 167 321 334 326 331 59 20 342 45 37 315 340 30 50
47 41 7 350 13 35 14 343 163 161 184 176 152 179 120 40 154 44 347 198 186 122 113 103 108 69 109 68 56 109 51 164 120 330 350 12 71 61 40 357 304 3 26 40 42
61 46 12 12 4 23 26 350 350 175 189 179 165 135 86 64 267 321 327 166 125 117 153 138 145 118 125 148 50 61 146 52 123 89 90 68 61 105 37 9 29 46 44 37 34
76 48 28 7 8 27 46 4 347 200 173 165 146 126 93 116 318 341 96 110 141 126 164 153 166 122 93 108 136 173 101 21 7 43 79 107 57 132 9 356 40 44 47 35 34
95 61 43 1 17 8 33 16 349 14 141 159 154 107 61 187 3 20 72 102 140 133 144 234 152 88 132 134 111 95 67 7 38 356 98 144 44 48 328 28 49 39 47 44 37
51 79 33 16 30 8 20 13 344 338 348 160 169 71 222 299 320 59 84 71 214 78 136 112 157 108 93 121 68 80 54 202 23 14 323 81 265 29 13 57 55 48 46 50 44
52 56 13 23 23 5 353 31 345 333 11 143 122 110 267 331 86 92 88 122 103 18 73 108 84 92 56 90 61 11 131 184 188 317 287 78 142 18 41 72 72 64 62 60 51
22 25 3 6 15 349 6 34 321 350 97 111 83 72 326 210 170 104 37 121 120 121 57 49 49 99 58 106 184 177 171 190 167 202 85 53 112 120 66 85 78 87 85 75 59
16 8 12 351 21 3 346 47 104 76 24 118 145 58 133 16 78 59 121 95 84 67 139 97 116 193 183 184 163 166 150 162 176 226 129 194 165 169 124 88 109 112 103 91 75
11 358 359 1 28 348 19 68 38 352 150 211 136 224 161 178 93 84 118 117 116 141 129 66 221 218 192 183 147 155 141 135 181 314 164 182 192 146 155 174 158 140 115 114 101
2 14 354 30 1 24 18 34 322 327 91 238 178 156 165 143 157 187 134 130 126 139 176 162 233 153 156 142 132 200 182 172 169 134 47 115 267 193 182 160 158 149 131 110 109
22 28 1 337 47 303 37 331 321 299 87 195 205 226 135 156 91 186 189 140 149 168 138 199 158 156 163 178 145 201 202 167 191 80 231 198 272 228 174 177 186 181 168 144 114
24 21 40 57 220 42 322 302 319 14 147 175 156 133 142 154 135 225 184 74 158 163 131 230 169 145 164 196 169 223 158 188 161 182 36 271 25 250 133 202 205 190 176 144 129
20 5 42 33 43 23 313 326 326 65 251 181 6 168 127 140 129 142 145 63 150 122 49 186 175 152 196 168 175 156 93 56 63 55 240 200 172 246 191 202 172 173 175 152 147
10 49 50 96 349 320 350 296 103 169 296 207 195 168 146 152 141 180 165 175 158 121 171 113 205 288 153 98 66 135 119 50 21 232 233 162 196 240 192 187 182 171 164 151 150
57 57 36 66 302 271 73 222 147 235 193 124 175 142 168 141 191 157 134 191 250 119 136 155 213 175 184 175 174 196 158 156 195 200 241 91 229 250 53 35 142 157 146 143 144
50 22 39 335 321 164 81 43 202 198 177 165 117 158 176 227 135 146 197 212 203 195 146 142 224 119 168 167 158 211 178 162 109 83 37 223 277 219 159 135 136 143 146 154 152
87 48 356 325 341 82 95 285 294 297 317 162 165 186 163 179 152 178 173 199 222 196 216 211 154 191 169 133 96 165 163 89 28 160 232 264 265 247 221 199 179 173 166 156 145
55 62 268 336 84 49 195 233 301 302 324 244 194 159 182 171 173 189 198 291 188 186 194 152 110 191 138 211 159 141 177 99 134 172 196 254 250 196 209 186 185 177 169 159 162
101 55 291 326 74 115 164 198 205 307 303 285 265 178 180 167 168 196 215 233 189 152 175 205 124 172 199 241 202 182 185 161 187 217 226 191 267 54 240 195 174 169 160 157 155
92 219 318 89 141 224 309 276 285 312 4 327 283 203 179 187 192 196 191 201 176 180 169 189 255 76 358 337 7 200 194 176 132 114 193 184 249 48 91 134 166 158 159 155 146
91 40 329 51 139 129 159 239 252 236 195 250 290 287 153 217 208 200 209 202 196 193 263 153 160 194 216 210 141 195 188 198 207 227 193 229 259 194 182 165 164 164 160 159 161
37 243 216 216 234 190 198 165 163 245 256 171 299 260 204 213 202 215 184 132 166 228 224 174 221 161 212 109 220 227 197 192 210 221 211 239 219 207 196 191 178 166 161 163 170
138 141 174 172 141 150 201 236 200 204 161 232 192 266 287 243 225 198 173 187 185 171 181 191 252 119 250 153 79 301 241 217 220 222 239 294 241 48 121 133 167 176 174 178 178
199 67 112 198 176 160 217 206 210 178 251 188 223 196 261 278 199 264 290 193 187 174 184 171 150 122 247 142 124 286 225 214 218 220 211 220 227 150 175 183 184 180 184 183 180